Retour au catalogue

COSMOS 2513

ActifNavigationGEO
NORAD 41121·PAYLOAD·🇷🇺 Russia

Lancé Dec 13, 2015 depuis Baikonur Cosmodrome

Loading…

TLE

FraisSource: Space-Track

Époque: Sep 14, 2026, 14:11 UTC

1 41121U 15075A   26257.59104774 -.00000147  00000-0  00000-0 0  9999
2 41121   0.0483 104.1490 0001199  99.9402  82.5258  1.00273367 39447

Suivez COSMOS 2513 en temps réel avec AllMySat

Download on the App Store